Regional Weather Roundup
Issued by NWS

Home | Current Version | Previous Version | Graphics & Text | Print | Product List | Glossary On
Versions: 1 2 3 4 5 6 7 8 9 10 11 12 13 14 15 16 17 18 19 20 21 22 23 24 25 26 27 28 29 30 31 32 33 34 35 36 37 38 39 40 41 42 43 44 45 46 47 48 49 50
627
ASUS43 KFSD 270210
RWRSD

WEATHER ROUNDUP FOR SOUTH DAKOTA
NATIONAL WEATHER SERVICE SIOUX FALLS SD
900 PM CDT WED APR 26 2017

NOTE: "FAIR" INDICATES FEW OR NO CLOUDS BELOW 12,000 FEET WITH NO
SIGNIFICANT WEATHER AND/OR OBSTRUCTIONS TO VISIBILITY.


SDZ001>005-009-010-012>017-270300-
NORTHWEST AND NORTH CENTRAL SOUTH DAKOTA

CITY           SKY/WX    TMP DP  RH WIND       PRES   REMARKS
BUFFALO          N/A     44  26  49 CALM      29.64F
FAITH            N/A     39  27  62 N7        29.70S
MOBRIDGE       CLEAR     35  24  64 NE8       29.71S WCI  29
$$

SDZ012>016-024>037-041>051-057-063-072>074-270300-
SOUTHWEST AND SOUTH CENTRAL SOUTH DAKOTA

CITY           SKY/WX    TMP DP  RH WIND       PRES   REMARKS
RAPID CTY ARPT MOCLDY    36  29  75 NW5       29.73S
PIERRE         CLEAR     36  27  69 NE8       29.70R
CUSTER         CLOUDY    33  30  88 NE5       29.67F FOG     WCI  29
ELLSWORTH AFB  CLOUDY    36  30  78 W5        29.72
PHILIP         CLEAR     38  31  76 W6        29.71S
PINE RIDGE     CLEAR     37  31  78 NE5       29.72F
SPEARFISH      FAIR      32  28  86 E5        29.71F WCI  27
WINNER         FAIR      40  28  62 N9        29.70S
$$

SDZ004>011-016>023-039-040-270300-
NORTHEAST SOUTH DAKOTA

CITY           SKY/WX    TMP DP  RH WIND       PRES   REMARKS
ABERDEEN       CLOUDY    30  24  78 N12       29.75R WCI  20
WATERTOWN      CLOUDY    28  24  85 N17       29.67S WCI  16
BROOKINGS      CLOUDY    29  25  85 NW16      29.66F WCI  17
SISSETON         N/A     30  27  88 N20       29.70S WCI  17
$$

SDZ017-020-022-023-036>040-048>070-270300-
SOUTHEAST SOUTH DAKOTA

CITY           SKY/WX    TMP DP  RH WIND       PRES   REMARKS
SIOUX FALLS    CLOUDY    33  27  78 N15       29.67S WCI  23
HURON          CLOUDY    32  26  78 N16       29.72F WCI  21
CHAMBERLAIN    CLEAR     38  30  72 N6        29.71S
MITCHELL       CLOUDY    35  28  75 N15       29.72S WCI  25
YANKTON        CLOUDY    37  28  70 NW16      29.69R
$$

ABBREVIATIONS USED IN REMARKS
   TC - TEMPERATURE IN CELSIUS
  WCI - WIND CHILL INDEX
   HX - HEAT INDEX
  VSB - VISIBILITY





USA.gov is the U.S. government's official web portal to all federal, state and local government web resources and services.